Location: Port-Aux-Quilles Astronomical Observatory
(47.9769°N, 69.9642°W)
Time: 00:04:57
(UTC-05:00)

Envisat - Pass Details

Date: 27 October 2019
Orbit: 764 x 766 km, 98.1° (Epoch: 21 November)

Event Time Altitude Azimuth Distance (km) Brightness Sun altitude
Rises 06:13:34 0° 30° (NNE) 3,243 6.6 -11.1°
Reaches altitude 10° 06:16:57 10° 53° (NE) 2,310 6.2 -10.6°
Maximum altitude 06:19:46 15° 87° (E) 1,987 6.5 -10.1°
Drops below altitude 10° 06:22:35 10° 121° (ESE) 2,299 6.7 -9.6°
Sets 06:25:56 0° 145° (SE) 3,219 6.9 -9.1°
